Regional Weather Roundup
Issued by NWS

Home | Current Version | Previous Version | Graphics & Text | Print | Product List | Glossary On
Versions: 1 2 3 4 5 6 7 8 9 10 11 12 13 14 15 16 17 18 19 20 21 22 23 24 25 26 27 28 29 30 31 32 33 34 35 36 37 38 39 40 41 42 43 44 45 46 47 48 49 50
000
ASUS45 KSLC 140810
RWRUT

UTAH REGIONAL WEATHER ROUNDUP
NATIONAL WEATHER SERVICE SALT LAKE CITY UT
100 AM MST SUN FEB 14 2016

UTZ001>011-023>025-140900-

NORTHERN UTAH

CITY           SKY/WX    TMP DP  RH WIND       PRES   REMARKS
BRIGHAM CITY   CLOUDY    27  25  93 CALM      30.30F VSB 3/4
HILL AFB       FOG       26  25  95 SE3       30.26F VSB 1/4
LOGAN          FOG       24  24 100 CALM      30.27F VSB 1/4
OGDEN          FOG       26  26 100 S5        30.27F VSB 1/2 WCI  20
PROVO AIRPORT    N/A    N/A N/A N/A CALM      30.29F VSB<1/4
SALT LAKE CITY FOG       29  29 100 CALM      30.29F VSB 1/8
VERNAL         CLOUDY    24  18  77 W7        30.20F WCI  16
WENDOVER       CLOUDY    27  25  93 SE3       30.30F
WEST JORDAN    CLOUDY    28  28 100 CALM      30.29F VSB 3/4

$$

UTZ012>022-026-027-140900-

SOUTHERN/CENTRAL UTAH

CITY           SKY/WX    TMP DP  RH WIND       PRES   REMARKS
BLANDING       CLEAR     33  19  58 N6        30.26S WCI  27
BRYCE CANYON   PTCLDY    14   6  70 CALM      30.29F
CEDAR CITY     MOCLDY    25  20  81 CALM      30.26F
DELTA          CLOUDY    11   9  92 S3        30.31R VSB<1/4
MILFORD        FOG       11   9  92 E3        30.29F VSB 1/4
MOAB/CYNLANDS  CLEAR     33  30  88 NE3       30.20F
PRICE          MOCLDY    32  19  58 N8        30.20F WCI  25
ST GEORGE      MOSUNNY   46  23  39 CALM      30.20R
KANAB          CLEAR     34  27  75 E9        30.24S WCI  26

$$

REGIONAL REPORTS     COLORADO/ARIZONA

CITY           SKY/WX    TMP DP  RH WIND       PRES   REMARKS
CRAIG, CO      CLOUDY     8   4  83 CALM      30.22F
GRAND JUNCTION CLOUDY    26  25  96 CALM      30.20F
RIFLE          CLOUDY    24  19  81 CALM      30.23F
MONTROSE       CLOUDY    28  24  85 SE6       30.25R WCI  22
CORTEZ         CLOUDY    28  23  81 E8        30.19F WCI  20
PAGE, AZ       CLEAR     43  32  65 CALM      30.18F
GRAND CANYON   MOCLDY    27  19  72 CALM      30.25R
KINGMAN        CLEAR     46  21  37 SE9       30.14F
FLAGSTAFF      PTCLDY    26  16  65 CALM      30.24R

$$

REGIONAL REPORTS    NEVADA/IDAHO/WYOMING

CITY           SKY/WX    TMP DP  RH WIND       PRES   REMARKS
LAS VEGAS, NV  CLEAR     55  22  27 S5        30.10S
ELY            CLOUDY    22  14  71 S18       30.31F WCI   7
ELKO           CLOUDY    28  24  85 CALM      30.28F
POCATELLO, ID  CLOUDY    37  27  67 S6        30.17F WCI  32
BURLEY         CLOUDY    36  30  79 CALM      30.17F
EVANSTON, WY   CLOUDY    25  17  72 SW15      30.22F WCI  13
ROCK SPRINGS   CLOUDY    29  19  66 SW14      30.14F WCI  18

$$



USA.gov is the U.S. government's official web portal to all federal, state and local government web resources and services.